Location: Foulognes
(49.1413°N, 0.8183°W)
Time: 03:10:38
(UTC+00:00)

STARLINK-28 - Pass Details

Date: 21 October 2019
Orbit: 548 x 551 km, 53.0° (Epoch: 14 November)

Event Time Altitude Azimuth Distance (km) Brightness Sun altitude
Rises 17:28:26 0° 266° (W) 2,715 9.8 -5.0°
Reaches altitude 10° 17:30:42 10° 271° (W) 1,823 8.0 -5.3°
Maximum altitude 17:34:46 54° 349° (N) 673 4.1 -6.0°
Drops below altitude 10° 17:38:51 10° 68° (ENE) 1,828 5.6 -6.7°
Enters shadow 17:39:15 - 69° (ENE) 1,988 5.8 -6.7°
